Content
SEND FEEDBACK

Daily
Averages
Monthly
Summary
Canada

MONTREAL, QUEBEC


Home > North America > Canada > Quebec
Elevation: 35 meters     Latitude: 45 28N     Longitude: 073 45W

WEATHER
 
SELECT A DAY
Number of Records: 201,418;   Date Range: 1/1/95 - 10/20/14
 
SHARE

PRINT THIS DATA

[ ← Previous Day ]
WEATHER ALMANAC - 17 MARCH, 2013
[ Next Day → ]
[ °F ]   °C
Weather ElementAverageHighLow
Temperature-7.9 °C-5 °C (2:00 pm)-11 °C (3:00 am)
Dewpoint-18.1 °C-13.9 °C (8:00 am)-22 °C (2:00 pm)
Humidity45 %73 % (8:00 am)14 % (2:00 pm)
Barometer1020.7 hPa1028.1 hPa (11:00 pm)1013.9 hPa (1:00 am)
Wind Speed15.4 km/h27.8 km/h (2:00 pm)
Wind Gust42.6 km/h (1:00 pm)
Weather ElementAverage
Visibility33.8 km
Wind DirectionWSW (261.5 °)

Weather ElementTotal
Precipitation---
Heating Degree Days26.3 (Base 18.3)
Averaged from 27 records on 17 March, 2013
WEATHER CONDITIONS BREAKOUT
WIND DIRECTION BREAKOUT
WEATHER BY HOUR - 17 MARCH, 2013
[ °F ]   °C
Local TimeTemperatureDewpointHumidityBarometerVisibilityWind DirectionWind SpeedGust SpeedPrecipitationEventsConditions
1:00 AM-10 °C-17 °C57 %1013.9 hPa24.1 kmWest (270°)7.4 km/hClear
2:00 AM-10.6 °C-16.1 °C50 %1014.2 hPa24.1 kmSW (230°)7.4 km/h
2:00 AM-10 °C-16 °C62 %1014.2 hPa24.1 kmSW (230°)7.4 km/hClear
3:00 AM-11 °C-17 °C62 %1014.6 hPa24.1 kmWSW (250°)11.1 km/hClear
4:00 AM-11 °C-18 °C57 %1014.9 hPa24.1 kmCalmMostly Cloudy
5:00 AM-10 °C-18 °C53 %1014.9 hPa24.1 kmWest (270°)9.3 km/hMostly Cloudy
6:00 AM-10 °C-18 °C53 %1015.6 hPa24.1 kmWNW (300°)11.1 km/hOvercast
7:00 AM-10 °C-17 °C57 %1016.9 hPa24.1 kmWNW (300°)11.1 km/hOvercast
8:00 AM-10 °C-13.9 °C62 %1017.9 hPa24.1 kmWest (280°)5.6 km/hClear
8:00 AM-10 °C-14 °C73 %1017.9 hPa24.1 kmWest (280°)7.4 km/hPartly Cloudy
9:00 AM-9 °C-15 °C62 %1019 hPa24.1 kmWNW (290°)20.4 km/hClear
10:00 AM-8 °C-17 °C49 %1020 hPa48.3 kmNW (310°)16.7 km/hPartly Cloudy
11:00 AM-7 °C-16 °C49 %1021 hPa48.3 kmWest (270°)20.4 km/h35.2 km/hPartly Cloudy
12:00 PM-7 °C-19 °C39 %1021.7 hPa48.3 kmWest (270°)24.1 km/h35.2 km/hClear
1:00 PM-6 °C-19 °C36 %1022.4 hPa48.3 kmWest (280°)22.2 km/h42.6 km/hPartly Cloudy
2:00 PM-5.6 °C-21.7 °C14 %1022.7 hPa45.1 kmWest (280°)20.4 km/hScattered Clouds
2:00 PM-5 °C-22 °C26 %1022.7 hPa48.3 kmWNW (300°)27.8 km/h40.7 km/hPartly Cloudy
3:00 PM-5 °C-22 °C26 %1022.7 hPa48.3 kmWest (270°)20.4 km/h37 km/hPartly Cloudy
4:00 PM-5 °C-22 °C26 %1023.4 hPa48.3 kmWNW (290°)25.9 km/h40.7 km/hClear
5:00 PM-5 °C-21 °C28 %1023.7 hPa48.3 kmWest (260°)24.1 km/h35.2 km/hClear
6:00 PM-5 °C-21 °C28 %1024.7 hPa48.3 kmWest (260°)27.8 km/hClear
7:00 PM-6 °C-21 °C30 %1025.1 hPa48.3 kmWest (270°)24.1 km/h35.2 km/hClear
8:00 PM-6.7 °C-18.3 °C25 %1026.1 hPa24.1 kmWSW (250°)16.7 km/hClear
8:00 PM-7 °C-18 °C42 %1026.1 hPa24.1 kmWest (260°)14.8 km/hClear
9:00 PM-7 °C-18 °C42 %1027.1 hPa24.1 kmWest (260°)11.1 km/hClear
10:00 PM-8 °C-16 °C53 %1027.8 hPa24.1 kmWest (260°)14.8 km/hClear
11:00 PM-9 °C-17 °C53 %1028.1 hPa24.1 kmWest (270°)7.4 km/hClear
Hourly data recorded from CYUL, located 0 kilometers away from Montreal, Quebec







STORIES FROM OUR PARTNERS